Showing default

COSMOS 1635, 15617

Orbit data source: Space-Track

COSMOS 1635, 15617 is a payload satellite owned by GUKOS (CIS) in LEO that was launched on Thu, 21 Mar 1985 UTC via a KOSMOS 11K65M launch vehicle from the Plesetsk Missile And Space Complex (PKMTR). Payload-class satellites include a variety of spacecraft equipped with specific instruments for various scientific and technological missions. These include communications satellites like Starlink; space stations such as the ISS; scientific satellites like the Hubble; Earth observation satellites from companies like Planet Labs, Umbra, and HawkEye 360; GPS; miniature CubeSats for education and research; and military/defense satellites.

Loading next visibility...
Identifier
15617, 1985-023A
Orbit
LEO
Country
Flag of CISCIS
Related business
Manufacturer
NPO PM
Mission
Spacecraft
Bus & Motor
STRELA-1 11F625, Unknown motor
Mass
60 kg wet, 60 kg dry
Launch date (UTC)
1985-03-21 (41 years ago)
Launch vehicle
KOSMOS 11K65M
Launch site
Plesetsk Missile And Space Complex (PKMTR)
Object type
Payload
Rocket body
Debris
Shape & HBR
Unknown
Radar Cross Section
Medium (>0.1 m² and <1 m²)

Expand to show TLE details & history
Last TLE update: 9 hours ago

TLE from 9 hours ago
0 COSMOS 1635
1 15617U 85023A   25346.90393829  .00000006  00000-0  14996-3 0  9999
2 15617  74.0531 141.2549 0023856  74.8726  40.1798 12.43254837848565
Epoch: 2025-12-12T21:41Z
TLE epoch observation values (Epoch: 2025-12-12T21:41:40.268Z)
Latitude
60.53077°
Longitude
-116.21397°
Altitude
1,488.445 km
Speed
7.132 km/s
True Right ascension
19h 24m 10s
True Declination
60° 23' 49"
Sunlit
Object was in daylight at epoch
Visualization orbit readout
Latitude
Unknown
Longitude
Unknown
Altitude
Unknown
Speed
Unknown
Apparent Right ascension
Unknown
Apparent Declination
Unknown
Sunlit
N/A
Visualization observer readout
Local Sidereal Time
05:23:37
Azimuth
Unknown
Elevation
Unknown
Doppler factor
Unknown
Orbital elements
Apogee altitude
1,509.449 km
Perigee altitude
1,471.905 km
Semi-major axis
7,868.814 km
Eccentricity
0.00239
Inclination
74.0531°
RAAN
141.2549°
Arg. of periapsis
74.8726°
True anomaly
40.35658°
Mean anomaly
40.1798°
Eccentric anomaly
40.26815°
Mean motion
3.10942 °/min
Orbital period
115.78 mins
BSTAR
0.00014996
Loading maneuver chart data...
Computing Atmospheric mass density...
Loading historical data...
Loading historical data...
Loading historical data...
Loading historical data...
Loading historical data...
Loading historical data...
Loading historical data...

Documentation

Showing up to 5 results
|